When you browse on this site, cookies collect data to enhance your experience and personalize the content and advertising you see.
Visit our Privacy Policy to learn more. By continuing to use the site, you agree to this use of cookies and data.
  • En España
  • Lista de países
  • Para 7 días
  • Temperatura del agua
  • Mapa Satelital
  • El tiempo en el mapa
  • Informadores
  • user-avatar
    Iniciar sesión

    Tiempo cada hora Cacalosúchil

    Hoy, 19 Febrero, Martes

    Tiempo Temperatura Precipitaciones Viento Presión Humedad
    00:00 +20°C° 0 mm 1 mps 628 mmHg 22%
    01:00 +20°C° 0 mm 1 mps 628 mmHg 23%
    02:00 +19°C° 0 mm 1 mps 627 mmHg 24%
    03:00 +19°C° 0 mm 1 mps 627 mmHg 27%
    04:00 +18°C° 0 mm 1 mps 627 mmHg 29%
    05:00 +18°C° 0 mm 1 mps 627 mmHg 31%
    06:00 +19°C° 0 mm 1 mps 628 mmHg 30%
    07:00 +21°C° 0 mm 1 mps 629 mmHg 29%
    08:00 +23°C° 0 mm 1 mps 629 mmHg 28%
    09:00 +24°C° 0 mm 2 mps 630 mmHg 26%
    10:00 +26°C° 0 mm 3 mps 630 mmHg 23%
    11:00 +27°C° 0 mm 3 mps 630 mmHg 21%
    12:00 +28°C° 0 mm 4 mps 630 mmHg 19%
    13:00 +28°C° 0 mm 4 mps 629 mmHg 17%
    14:00 +29°C° 0 mm 4 mps 628 mmHg 15%
    15:00 +28°C° 0 mm 4 mps 628 mmHg 17%
    16:00 +27°C° 0 mm 3 mps 627 mmHg 19%
    17:00 +26°C° 0 mm 3 mps 627 mmHg 20%
    18:00 +24°C° 0 mm 2 mps 627 mmHg 24%
    19:00 +21°C° 0 mm 2 mps 627 mmHg 27%
    20:00 +19°C° 0 mm 2 mps 627 mmHg 30%
    21:00 +20°C° 0 mm 1 mps 627 mmHg 33%
    22:00 +19°C° 0 mm 1 mps 627 mmHg 36%
    23:00 +19°C° 0 mm 1 mps 627 mmHg 38%

    Mañana, 20 Febrero, Miércoles

    Tiempo Temperatura Precipitaciones Viento Presión Humedad
    00:00 +18°C° 0 mm 1 mps 626 mmHg 39%
    01:00 +18°C° 0 mm 1 mps 626 mmHg 40%
    02:00 +16°C° 0 mm 1 mps 626 mmHg 40%
    03:00 +16°C° 0 mm 1 mps 625 mmHg 40%
    04:00 +15°C° 0 mm 1 mps 625 mmHg 40%
    05:00 +15°C° 0 mm 1 mps 625 mmHg 40%
    06:00 +18°C° 0 mm 1 mps 626 mmHg 36%
    07:00 +18°C° 0 mm 0 mps 627 mmHg 32%
    08:00 +20°C° 0 mm 0 mps 628 mmHg 29%
    09:00 +24°C° 0 mm 1 mps 628 mmHg 26%
    10:00 +25°C° 0 mm 2 mps 628 mmHg 24%
    11:00 +27°C° 0 mm 3 mps 629 mmHg 22%
    12:00 +28°C° 0 mm 3 mps 628 mmHg 20%
    13:00 +28°C° 0 mm 4 mps 627 mmHg 18%
    14:00 +29°C° 0 mm 4 mps 627 mmHg 17%
    15:00 +28°C° 0 mm 3 mps 626 mmHg 18%
    16:00 +27°C° 0 mm 3 mps 626 mmHg 20%
    17:00 +26°C° 0 mm 3 mps 626 mmHg 21%
    18:00 +24°C° 0 mm 2 mps 626 mmHg 23%
    19:00 +21°C° 0 mm 2 mps 626 mmHg 25%
    20:00 +20°C° 0 mm 1 mps 626 mmHg 27%
    21:00 +20°C° 0 mm 1 mps 626 mmHg 28%
    22:00 +19°C° 0 mm 1 mps 626 mmHg 29%
    23:00 +19°C° 0 mm 1 mps 627 mmHg 30%

    Pasado mañana, 21 Febrero, Jueves

    Tiempo Temperatura Precipitaciones Viento Presión Humedad
    00:00 +18°C° 0 mm 1 mps 626 mmHg 31%
    01:00 +18°C° 0 mm 1 mps 626 mmHg 32%
    02:00 +16°C° 0 mm 1 mps 625 mmHg 33%
    03:00 +16°C° 0 mm 1 mps 625 mmHg 34%
    04:00 +15°C° 0 mm 1 mps 625 mmHg 34%
    05:00 +15°C° 0 mm 1 mps 625 mmHg 35%
    06:00 +18°C° 0 mm 1 mps 626 mmHg 33%
    07:00 +20°C° 0 mm 1 mps 627 mmHg 30%
    08:00 +20°C° 0 mm 0 mps 629 mmHg 27%
    09:00 +24°C° 0 mm 1 mps 629 mmHg 25%
    10:00 +25°C° 0 mm 2 mps 629 mmHg 22%
    11:00 +27°C° 0 mm 3 mps 629 mmHg 20%
    12:00 +28°C° 0 mm 3 mps 629 mmHg 18%
    13:00 +28°C° 0 mm 4 mps 628 mmHg 17%
    14:00 +29°C° 0 mm 4 mps 627 mmHg 15%
    15:00 +28°C° 0 mm 3 mps 627 mmHg 16%
    16:00 +27°C° 0 mm 3 mps 627 mmHg 18%
    17:00 +26°C° 0 mm 2 mps 626 mmHg 19%
    18:00 +24°C° 0 mm 2 mps 627 mmHg 21%
    19:00 +23°C° 0 mm 2 mps 627 mmHg 23%
    20:00 +20°C° 0 mm 2 mps 627 mmHg 25%
    21:00 +20°C° 0 mm 1 mps 627 mmHg 25%
    22:00 +20°C° 0 mm 1 mps 627 mmHg 26%
    23:00 +19°C° 0 mm 1 mps 627 mmHg 26%

    22 Febrero, Viernes

    Tiempo Temperatura Precipitaciones Viento Presión Humedad
    00:00 +19°C° 0 mm 1 mps 626 mmHg 26%
    01:00 +18°C° 0 mm 1 mps 626 mmHg 26%
    02:00 +18°C° 0 mm 1 mps 626 mmHg 25%
    03:00 +16°C° 0 mm 1 mps 626 mmHg 25%
    04:00 +16°C° 0 mm 1 mps 626 mmHg 25%
    05:00 +16°C° 0 mm 1 mps 626 mmHg 25%
    06:00 +19°C° 0 mm 1 mps 627 mmHg 23%
    07:00 +19°C° 0 mm 0 mps 628 mmHg 21%
    08:00 +21°C° 0 mm 0 mps 630 mmHg 18%
    09:00 +25°C° 0 mm 1 mps 630 mmHg 17%
    10:00 +27°C° 0 mm 2 mps 630 mmHg 17%
    11:00 +28°C° 0 mm 2 mps 630 mmHg 16%
    12:00 +29°C° 0 mm 3 mps 630 mmHg 16%
    13:00 +29°C° 0 mm 3 mps 629 mmHg 16%
    14:00 +30°C° 0 mm 3 mps 628 mmHg 17%
    15:00 +29°C° 0 mm 3 mps 628 mmHg 18%
    16:00 +28°C° 0 mm 3 mps 628 mmHg 20%
    17:00 +27°C° 0 mm 2 mps 628 mmHg 22%
    18:00 +25°C° 0 mm 2 mps 628 mmHg 25%
    19:00 +23°C° 0 mm 2 mps 628 mmHg 27%
    20:00 +22°C° 0 mm 1 mps 628 mmHg 30%
    21:00 +21°C° 0 mm 1 mps 628 mmHg 31%
    22:00 +20°C° 0 mm 1 mps 628 mmHg 32%
    23:00 +20°C° 0 mm 1 mps 628 mmHg 34%

    23 Febrero, Sábado

    Tiempo Temperatura Precipitaciones Viento Presión Humedad
    00:00 +19°C° 0 mm 1 mps 628 mmHg 35%
    01:00 +19°C° 0 mm 1 mps 627 mmHg 37%
    02:00 +18°C° 0 mm 1 mps 627 mmHg 39%
    03:00 +18°C° 0 mm 1 mps 627 mmHg 40%
    04:00 +18°C° 0 mm 1 mps 627 mmHg 40%
    05:00 +16°C° 0 mm 1 mps 627 mmHg 41%
    06:00 +19°C° 0 mm 1 mps 628 mmHg 39%
    07:00 +19°C° 0 mm 0 mps 629 mmHg 37%
    08:00 +21°C° 0 mm 0 mps 630 mmHg 34%
    09:00 +25°C° 0 mm 1 mps 631 mmHg 31%
    10:00 +26°C° 0 mm 2 mps 631 mmHg 29%
    11:00 +28°C° 0 mm 3 mps 631 mmHg 26%
    12:00 +28°C° 0 mm 3 mps 630 mmHg 24%
    13:00 +29°C° 0 mm 3 mps 630 mmHg 23%
    14:00 +30°C° 0 mm 4 mps 629 mmHg 22%
    15:00 +29°C° 0 mm 3 mps 629 mmHg 23%
    16:00 +28°C° 0 mm 3 mps 629 mmHg 25%
    17:00 +27°C° 0 mm 3 mps 629 mmHg 27%
    18:00 +25°C° 0 mm 2 mps 629 mmHg 29%
    19:00 +24°C° 0 mm 2 mps 629 mmHg 31%
    20:00 +22°C° 0 mm 1 mps 629 mmHg 33%
    21:00 +22°C° 0 mm 1 mps 629 mmHg 35%
    22:00 +20°C° 0 mm 2 mps 629 mmHg 37%
    23:00 +20°C° 0 mm 2 mps 629 mmHg 39%

    24 Febrero, Domingo

    Tiempo Temperatura Precipitaciones Viento Presión Humedad
    00:00 +19°C° 0 mm 2 mps 629 mmHg 42%
    01:00 +20°C° 0 mm 1 mps 628 mmHg 44%
    02:00 +19°C° 0 mm 1 mps 628 mmHg 47%
    03:00 +19°C° 0 mm 1 mps 628 mmHg 49%
    04:00 +19°C° 0 mm 1 mps 628 mmHg 51%
    05:00 +18°C° 0 mm 1 mps 628 mmHg 53%
    06:00 +20°C° 0 mm 1 mps 629 mmHg 48%
    07:00 +22°C° 0 mm 1 mps 630 mmHg 43%
    08:00 +22°C° 0 mm 0 mps 631 mmHg 38%
    09:00 +26°C° 0 mm 1 mps 631 mmHg 34%
    10:00 +27°C° 0 mm 2 mps 631 mmHg 30%
    11:00 +29°C° 0 mm 2 mps 631 mmHg 27%
    12:00 +30°C° 0 mm 2 mps 630 mmHg 25%
    13:00 +31°C° 0 mm 2 mps 630 mmHg 23%
    14:00 +31°C° 0 mm 2 mps 629 mmHg 22%
    15:00 +30°C° 0 mm 2 mps 629 mmHg 23%
    16:00 +29°C° 0 mm 2 mps 629 mmHg 24%
    17:00 +29°C° 0 mm 2 mps 628 mmHg 25%
    18:00 +27°C° 0 mm 2 mps 629 mmHg 30%
    19:00 +25°C° 0 mm 2 mps 629 mmHg 35%
    20:00 +23°C° 0 mm 1 mps 629 mmHg 41%
    21:00 +22°C° 0 mm 1 mps 629 mmHg 45%
    22:00 +22°C° 0 mm 1 mps 629 mmHg 49%
    23:00 +21°C° 0 mm 1 mps 628 mmHg 53%
    Mostrar más